Location: Asis
(14.1331°N, 120.9056°E)
Time: 03:21:08
(UTC+00:00)

Cosmos 2239 Rocket - Pass Details

Date: 15 January 2026
Orbit: 953 x 991 km, 82.9° (Epoch: 17 February)

Event Time Altitude Azimuth Distance (km) Brightness Sun altitude
Rises 10:48:32 0° 359° (N) 3,664 7.3 -14.8°
Reaches altitude 10° 10:51:03 10° 1° (N) 2,710 6.6 -15.4°
Maximum altitude 10:57:15 76° 86° (E) 993 4.4 -16.8°
Drops below altitude 10° 11:03:23 10° 172° (S) 2,683 6.9 -18.2°
Sets 11:05:52 0° 173° (S) 3,624 7.6 -18.8°
